Yuma MCAS, AZ

8:57 AM MST on August 19, 2017 (GMT -0700)
Yuma Marine Corps Air Station

Weather History for KNYL - August, 2013

Change the Weather History Date:

Thursday, August 1, 2013

  Actual Average Record
Temperature  
Mean Temperature 97 °F 95 °F  
Max Temperature 110 °F 107 °F 117 °F (1993)
Min Temperature 84 °F 83 °F 67 °F (1915)
Degree Days  
Heating Degree Days 0 0  
Month to date heating degree days 0 0  
Since 1 June heating degree days 0 0  
Since 1 July heating degree days 0 0  
Cooling Degree Days 32 30  
Month to date cooling degree days 32 30  
Year to date cooling degree days 2844 2576  
Since 1 June cooling degree days 1783 1664  
Growing Degree Days 48 (Base 50)    
Moisture  
Dew Point 45 °F    
Average Humidity 18    
Maximum Humidity 27    
Minimum Humidity 9    
Precipitation  
Precipitation 0.00 in 0.01 in 1.41 in (1876)
Month to date precipitation 0.00 0.01  
Year to date precipitation 1.58 1.63  
Sea Level Pressure  
Sea Level Pressure 29.76 in    
Wind  
Wind Speed 9 mph (South)    
Max Wind Speed 24 mph    
Max Gust Speed 30 mph    
Visibility 10 miles    
Events      
T = Trace of Precipitation, MM = Missing Value Source: NWS Daily Summary

Daily Weather History Graph

Daily Weather History Graph

Search for Another Location

Airport or City:

Trip Planner

Search our weather history database for the weather conditions in past years. The results will help you decide how hot, cold, wet, or windy it might be!

Date:

Astronomy

Aug. 01, 2013 Rise Set
Actual Time 5:52 AM MST 7:36 PM MST
Civil Twilight 5:25 AM MST 8:03 PM MST
Nautical Twilight 4:53 AM MST 8:35 PM MST
Astronomical Twilight 4:19 AM MST 9:09 PM MST
Moon 1:33 AM MST (8/1) 3:46 PM MST (8/1)
Length of Visible Light 14h 37m
Length of Day
13h 43m
Waning Crescent, 22% of the Moon is Illuminated
Aug 1
Waning Crescent
Aug 6
New
Aug 14
First Quarter
Aug 20
Full
Aug 28
Last Quarter

Hourly Weather History & Observations

Time (MST) Temp. Heat Index Dew Point Humidity Pressure Visibility Wind Dir Wind Speed Gust Speed Precip Events Conditions
12:57 AM 93.0 °F - 41.0 °F 16% 29.80 in 10.0 mi SSE 3.5 mph - N/A   Partly Cloudy
1:57 AM 90.0 °F - 44.1 °F 20% 29.78 in 10.0 mi SSE 3.5 mph - N/A   Partly Cloudy
2:57 AM 89.1 °F - 44.6 °F 21% 29.77 in 10.0 mi SSE 3.5 mph - N/A   Partly Cloudy
3:57 AM 89.1 °F - 41.0 °F 19% 29.77 in 10.0 mi SSE 3.5 mph - N/A   Partly Cloudy
4:57 AM 88.0 °F - 42.1 °F 20% 29.78 in 10.0 mi Calm Calm - N/A   Partly Cloudy
5:57 AM 86.0 °F - 48.0 °F 27% 29.79 in 10.0 mi Calm Calm - N/A   Scattered Clouds
6:57 AM 87.1 °F - 46.9 °F 25% 29.81 in 10.0 mi WNW 3.5 mph - N/A   Scattered Clouds
7:57 AM 91.9 °F - 39.0 °F 16% 29.82 in 10.0 mi South 3.5 mph - N/A   Mostly Cloudy
8:57 AM 93.9 °F - 52.0 °F 24% 29.82 in 10.0 mi SSW 8.1 mph - N/A   Mostly Cloudy
9:57 AM 96.1 °F - 52.0 °F 22% 29.82 in 10.0 mi South 6.9 mph - N/A   Mostly Cloudy
10:57 AM 100.9 °F - 51.1 °F 19% 29.81 in 10.0 mi SSW 8.1 mph - N/A   Mostly Cloudy
11:57 AM 106.0 °F - 48.9 °F 15% 29.79 in 10.0 mi South 11.5 mph - N/A   Mostly Cloudy
12:57 PM 109.0 °F - 42.1 °F 10% 29.78 in 10.0 mi South 24.2 mph 29.9 mph N/A   Mostly Cloudy
1:57 PM 109.0 °F - 37.0 °F 9% 29.77 in 10.0 mi South 20.7 mph 25.3 mph N/A   Mostly Cloudy
2:57 PM 109.0 °F - 42.1 °F 10% 29.74 in 10.0 mi SSE 17.3 mph - N/A   Mostly Cloudy
3:57 PM 109.0 °F - 39.0 °F 9% 29.71 in 10.0 mi South 17.3 mph - N/A   Scattered Clouds
4:57 PM 108.0 °F - 41.0 °F 10% 29.69 in 10.0 mi South 16.1 mph - N/A   Scattered Clouds
5:57 PM 106.0 °F - 46.0 °F 13% 29.68 in 10.0 mi SSE 15.0 mph - N/A   Scattered Clouds
6:57 PM 102.0 °F - 39.9 °F 12% 29.69 in 10.0 mi SSE 11.5 mph - N/A   Scattered Clouds
7:57 PM 97.0 °F - 50.0 °F 20% 29.71 in 10.0 mi South 11.5 mph - N/A   Scattered Clouds
8:57 PM 95.0 °F - 41.0 °F 15% 29.72 in 10.0 mi SSE 10.4 mph - N/A   Scattered Clouds
9:57 PM 91.9 °F - 44.1 °F 19% 29.73 in 10.0 mi SSE 6.9 mph - N/A   Partly Cloudy
10:57 PM 90.0 °F - 46.9 °F 23% 29.73 in 10.0 mi SSE 4.6 mph - N/A   Scattered Clouds
11:57 PM 88.0 °F 85.7 °F 53.1 °F 30% 29.73 in 10.0 mi South 6.9 mph - N/A   Scattered Clouds